Regional Weather Roundup
Issued by NWS

Home | Current Version | Previous Version | Text Only | Print | Product List | Glossary Off
Versions: 1 2 3 4 5 6 7 8 9 10 11 12 13 14 15 16 17 18 19 20 21 22 23 24 25 26 27 28 29 30 31 32 33 34 35 36 37 38 39 40 41 42 43 44 45 46 47 48 49 50

000
ASUS45 KABQ 112301
RWRNM
NEW MEXICO REGIONAL WEATHER ROUNDUP
NATIONAL WEATHER SERVICE ALBUQUERQUE NM
400 PM MST MON DEC 11 2017

NOTE: "FAIR" MEANS FEW OR NO CLOUDS BELOW 12,000 FEET AGL WITH NO
       SIGNIFICANT WEATHER OR OBSTRUCTIONS TO VISION.

      THIS PRODUCT IS RELEASED AS TWO VERSIONS.  ONE VERSION NEAR
      THE TOP OF THE HOUR CONTAINING PRELIMINARY DATA FROM ALBUQUERQUE
      AND OTHER STATIONS.  A FINAL VERSION WITH ADDITIONAL DATA IS
      ISSUED ABOUT 10 MINUTES AFTER THE HOUR.

NMZ501-503-504-510>518-120000-
NORTHWEST PLATEAU/NORTHCENTRAL MOUNTAINS

CITY           SKY/WX    TMP DP  RH WIND       PRES   REMARKS
FARMINGTON     FAIR      43   5  20 W9        30.38F
LOS ALAMOS     FAIR      54  -3   9 CALM      30.39S
SANTA FE       FAIR      50   1  13 SW12      30.35S
TAOS           FAIR      54   2  12 VRB3      30.39S
ANGEL FIRE     FAIR      50   0  12 W9        30.40S

$$
NMZ402-403-502-505>509-120000-
WESTCENTRAL MOUNTAINS/SOUTHWEST MOUNTAINS

CITY           SKY/WX    TMP DP  RH WIND       PRES   REMARKS
GALLUP         FAIR      52  -2  11 NE8       30.40S
GRANTS         FAIR      54   0  11 N5        30.40S
SILVER CITY    FAIR      55   5  13 S3        30.34S

$$
NMZ407-409-411-412-120000-
SOUTHERN DESERTS

CITY           SKY/WX    TMP DP  RH WIND       PRES   REMARKS
DEMING         FAIR      57  11  16 CALM      30.32S
LAS CRUCES     FAIR      56   9  15 CALM      30.33S
ALAMOGORDO     FAIR      52  18  25 SE3       30.32S
T OR C         FAIR      53   3  13 CALM      30.33F

$$
NMZ519>523-120000-
CENTRAL VALLEYS/CENTRAL HIGHLANDS

CITY           SKY/WX    TMP DP  RH WIND       PRES   REMARKS
ALBUQUERQUE    MOCLDY    51   2  13 CALM      30.36F
DOUBLE EAGLE   MOCLDY    46   3  17 CALM      30.36F
MORIARTY ARPT  FAIR      56   2  11 N9        30.35F
CLINES CORNERS FAIR      54  -2  10 W7        30.38R
BELEN          FAIR      49   2  14 CALM      30.36S
SOCORRO        FAIR      52   1  12 N13       30.34S

$$
NMZ524>526-539-540-120000-
SOUTHCENTRAL MOUNTAINS

CITY           SKY/WX    TMP DP  RH WIND       PRES   REMARKS
RUIDOSO        FAIR      55  -4   8 NW7       30.37S

$$
NMZ527>531-120000-
NORTHEAST HIGHLANDS/NORTHEAST PLAINS

CITY           SKY/WX    TMP DP  RH WIND       PRES   REMARKS
LAS VEGAS      FAIR      56  -1  10 S13       30.33F
RATON          FAIR      58  -5   7 SW7       30.30R
CLAYTON        FAIR      54   5  14 NE10      30.31R

$$
NMZ532>537-120000-
EASTCENTRAL PLAINS

CITY           SKY/WX    TMP DP  RH WIND       PRES   REMARKS
SANTA ROSA     FAIR      62   6  11 CALM      30.27S
TUCUMCARI      FAIR      59   4  11 E6        30.25R
CANNON AFB     NOT AVBL
CLOVIS AIRPORT FAIR      55  12  18 NE8       30.28S

$$
NMZ028-029-538-120000-
SOUTHEAST PLAINS

CITY           SKY/WX    TMP DP  RH WIND       PRES   REMARKS
ROSWELL        FAIR      66  16  14 N3        30.25R
ARTESIA        FAIR      61  12  15 CALM      30.25R
CARLSBAD       FAIR      61  20  20 E3        30.23S
HOBBS          CLEAR     66   1   7 NW12      30.24R


$$



USA.gov is the U.S. government's official web portal to all federal, state and local government web resources and services.